This is the latest recevied weather packets stored in our database for station/object K8DJB-1. If no packets are shown the sender has not sent any weather packets the latest 10 day(s).
| Time | Temp. | Humidity | Pressure | Rain* | Wind** | Luminosity | Snow |
|---|---|---|---|---|---|---|---|
| 1778168411 | 8.89° C | 50% | 1013.7 hPa | 0 mm | - | - | - |
| 1778168110 | 9.44° C | 49% | 1013.7 hPa | 0 mm | - | - | - |
| 1778167810 | 8.89° C | 51% | 1013.7 hPa | 0 mm | - | - | - |
| 1778167510 | 9.44° C | 50% | 1013.7 hPa | 0 mm | - | - | - |
| 1778167211 | 9.44° C | 51% | 1013.6 hPa | 0 mm | - | - | - |
| 1778166910 | 8.89° C | 51% | 1013.6 hPa | 0 mm | - | - | - |
| 1778166312 | 8.89° C | 52% | 1013.5 hPa | 0 mm | - | - | - |
| 1778165710 | 8.89° C | 50% | 1013.5 hPa | 0 mm | - | - | - |
| 1778165410 | 8.89° C | 52% | 1013.4 hPa | 0 mm | - | - | - |
| 1778165112 | 8.89° C | 52% | 1013.5 hPa | 0 mm | - | - | - |
| 1778164810 | 8.33° C | 51% | 1013.5 hPa | 0 mm | - | - | - |
| 1778164510 | 8.33° C | 52% | 1013.5 hPa | 0 mm | - | - | - |
| 1778164210 | 8.89° C | 52% | 1013.6 hPa | 0 mm | - | - | - |
| 1778163611 | 8.33° C | 54% | 1013.7 hPa | 0 mm | - | - | - |
| 1778163310 | 8.33° C | 52% | 1013.7 hPa | 0 mm | - | - | - |
| 1778163010 | 8.33° C | 52% | 1013.5 hPa | 0 mm | - | - | - |
| 1778162711 | 8.33° C | 53% | 1013.6 hPa | 0 mm | - | - | - |
| 1778162110 | 8.33° C | 52% | 1013.6 hPa | 0 mm | - | - | - |
| 1778161810 | 8.33° C | 53% | 1013.6 hPa | 0 mm | - | - | - |
| 1778161510 | 8.33° C | 53% | 1013.6 hPa | 0 mm | - | - | - |
| 1778161210 | 7.78° C | 55% | 1013.5 hPa | 0 mm | - | - | - |
| 1778160910 | 7.78° C | 55% | 1013.6 hPa | 0 mm | - | - | - |
| 1778160611 | 7.78° C | 55% | 1013.4 hPa | 0 mm | - | - | - |
| 1778160064 | 7.22° C | 57% | 1013.2 hPa | 0 mm | - | - | - |
| 1778159762 | 7.22° C | 58% | 1013.3 hPa | 0 mm | - | - | - |
* Rain latest hour (hover to see other rain measurements)
** Current wind speed in m/s (hover to see current wind gust speed)